User: anonymous   Login
Location: Carri�res
(48.9069°N, 2.1792°E)
Time: 00:13:11
(UTC+00:00)
Language:

Cosmos 1892 Rocket - Orbit

View from above orbital plane
View from above orbital plane
View from above satellite
View from above satellite

Ground track
Ground track

The orbit data is extracted from the following two-line orbital elements,

1 18422U 87088B   21103.17305552  .00000070  00000-0  55958-5 0  9997
2 18422  82.5092 308.6378 0020120 156.5897 342.6340 14.83068925808718
Epoch (UTC): 13 April 2021 04:09:11
Eccentricity: 0.0020120
inclination: 82.5092°
perigee height: 605 km
apogee height: 634 km
right ascension of ascending node: 308.6378°
argument of perigee: 156.5897°
revolutions per day: 14.83068925
mean anomaly at epoch: 342.6340°
orbit number at epoch: 80871

The dashed part of the orbit path shows where the satellite is in the earth's shadow,  

DLR